Weather History for Abilene, TX

Change the Weather History Date:

Monday, March 19, 2012

  Actual Average Record
Temperature  
Mean Temperature 61 °F 57 °F  
Max Temperature 70 °F 70 °F 93 °F (1907)
Min Temperature 52 °F 45 °F 14 °F (1923)
Degree Days  
Heating Degree Days 4 9  
Month to date heating degree days 115 208  
Since 1 July heating degree days 2025 2341  
Cooling Degree Days 0 1  
Month to date cooling degree days 26 14  
Year to date cooling degree days 32 19  
Growing Degree Days 11 (Base 50)    
Moisture  
Dew Point 54 °F    
Average Humidity 66    
Maximum Humidity 87    
Minimum Humidity 44    
Precipitation  
Precipitation 0.41 in 0.05 in 1.65 in (2002)
Month to date precipitation 1.17 1.07  
Year to date precipitation 5.64 3.45  
Sea Level Pressure  
Sea Level Pressure 29.66 in    
Wind  
Wind Speed 13 mph (SW)    
Max Wind Speed 28 mph    
Max Gust Speed 36 mph    
Visibility 9 miles    
Events Rain , Hail , Thunderstorm    
T = Trace of Precipitation, MM = Missing Value Source: NWS Daily Summary

Daily Weather History Graph

Daily Weather History Graph

Search for Another Location

Airport:

Trip Planner

Search our weather history database for the weather conditions in past years. The results will help you decide how hot, cold, wet, or windy it might be!

Date:

Astronomy

Mar. 19, 2012 Rise Set
Actual Time 7:43 AM CDT 7:49 PM CDT
Civil Twilight 7:18 AM CDT 8:14 PM CDT
Nautical Twilight 6:50 AM CDT 8:43 PM CDT
Astronomical Twilight 6:21 AM CDT 9:11 PM CDT
Moon 5:47 AM CDT (3/19) 5:26 PM CDT (3/19)
Length of Visible Light 12h 55m
Length of Day
12h 06m
Waning Crescent, 8% of the Moon is Illuminated
Mar 19
Waning Crescent
Mar 22
New
Mar 30
First Quarter
Apr 6
Full
Apr 13
Last Quarter

Hourly Weather History & Observations

Time (CDT) Temp. Dew Point Humidity Pressure Visibility Wind Dir Wind Speed Gust Speed Precip Events Conditions
12:52 AM 68.0 °F 63.0 °F 84% 29.66 in 10.0 mi South 29.9 mph 35.7 mph N/A   Mostly Cloudy
1:48 AM 68.0 °F 62.6 °F 83% 29.72 in 10.0 mi South 21.9 mph 35.7 mph N/A   Scattered Clouds
1:52 AM 68.0 °F 63.0 °F 84% 29.66 in 10.0 mi South 21.9 mph 35.7 mph N/A   Scattered Clouds
2:12 AM 68.0 °F 62.6 °F 83% 29.72 in 10.0 mi South 18.4 mph 26.5 mph N/A   Mostly Cloudy
2:52 AM 68.0 °F 63.0 °F 84% 29.61 in 10.0 mi SSE 24.2 mph 31.1 mph N/A   Mostly Cloudy
3:13 AM 68.0 °F 62.6 °F 83% 29.67 in 10.0 mi South 17.3 mph 27.6 mph N/A   Scattered Clouds
3:52 AM 66.0 °F 62.1 °F 87% 29.60 in 10.0 mi South 12.7 mph - N/A   Clear
4:52 AM 64.9 °F 59.0 °F 81% 29.59 in 10.0 mi SSE 13.8 mph - N/A   Clear
5:52 AM 68.0 °F 61.0 °F 78% 29.60 in 10.0 mi South 26.5 mph 36.8 mph N/A   Mostly Cloudy
6:03 AM 68.0 °F 60.8 °F 78% 29.67 in 10.0 mi South 19.6 mph 34.5 mph N/A   Scattered Clouds
6:52 AM 68.0 °F 62.1 °F 81% 29.60 in 10.0 mi South 20.7 mph 33.4 mph N/A   Scattered Clouds
7:02 AM 68.0 °F 62.6 °F 83% 29.68 in 10.0 mi South 20.7 mph 32.2 mph N/A   Mostly Cloudy
7:52 AM 69.1 °F 63.0 °F 81% 29.61 in 10.0 mi South 21.9 mph 33.4 mph N/A   Overcast
8:30 AM 68.0 °F 62.6 °F 83% 29.66 in 9.0 mi South 20.7 mph 32.2 mph N/A   Scattered Clouds
8:52 AM 69.1 °F 63.0 °F 81% 29.60 in 10.0 mi South 19.6 mph 33.4 mph N/A   Partly Cloudy
9:29 AM 69.8 °F 62.6 °F 78% 29.67 in 10.0 mi SSW 16.1 mph - N/A   Overcast
9:52 AM 62.1 °F 48.9 °F 62% 29.64 in 9.0 mi West 18.4 mph 26.5 mph N/A   Overcast
9:59 AM 60.8 °F 46.4 °F 59% 29.69 in 8.0 mi WNW 17.3 mph 26.5 mph N/A   Overcast
10:27 AM 57.2 °F 48.2 °F 72% 29.71 in 10.0 mi West 17.3 mph 23.0 mph N/A Thunderstorm Thunderstorm
10:42 AM 53.6 °F 48.2 °F 82% 29.71 in 1.8 mi WNW 17.3 mph 24.2 mph N/A Rain , Thunderstorm Light Thunderstorms and Rain
10:45 AM 53.6 °F 50.0 °F 88% 29.71 in 0.8 mi WNW 10.4 mph 24.2 mph N/A Rain , Hail , Thunderstorm Thunderstorms and Rain
11:52 AM 55.0 °F 53.1 °F 93% 29.69 in 10.0 mi WSW 4.6 mph - 0.06 in Rain Light Rain
12:52 PM 57.0 °F 50.0 °F 77% 29.66 in 10.0 mi Calm Calm - 0.01 in   Scattered Clouds
1:52 PM 63.0 °F 54.0 °F 72% 29.65 in 10.0 mi Variable 3.5 mph - N/A   Clear
2:16 PM 66.2 °F 46.4 °F 49% 29.70 in 10.0 mi NW 16.1 mph - N/A   Partly Cloudy
2:52 PM 64.9 °F 46.0 °F 50% 29.65 in 10.0 mi WNW 16.1 mph - N/A   Mostly Cloudy
3:52 PM 64.0 °F 43.0 °F 46% 29.66 in 10.0 mi WNW 19.6 mph 28.8 mph N/A   Overcast
4:52 PM 62.1 °F 43.0 °F 50% 29.64 in 10.0 mi NW 21.9 mph 28.8 mph N/A   Clear
5:52 PM 61.0 °F 44.1 °F 54% 29.64 in 10.0 mi NW 15.0 mph - N/A   Clear
6:52 PM 60.1 °F 45.0 °F 57% 29.62 in 10.0 mi NNE 5.8 mph - N/A   Clear
7:52 PM 57.9 °F 46.9 °F 67% 29.62 in 10.0 mi North 6.9 mph - N/A   Clear
8:52 PM 55.0 °F 48.0 °F 77% 29.64 in 10.0 mi North 8.1 mph - N/A   Mostly Cloudy
9:52 PM 55.9 °F 48.0 °F 75% 29.70 in 10.0 mi Calm Calm - N/A   Mostly Cloudy
10:52 PM 55.0 °F 42.1 °F 62% 29.75 in 10.0 mi NW 15.0 mph 27.6 mph N/A   Clear
11:52 PM 54.0 °F 42.1 °F 64% 29.75 in 10.0 mi Calm Calm - N/A   Scattered Clouds